Location: Wiler
(46.4041°N, 7.7840°E)
Time: 18:07:57
(UTC+00:00)

USA 234 - Pass Details

Date: 09 April 2020
Orbit: 1102 x 1106 km, 123.0° (Epoch: 14 May)

Event Time Altitude Azimuth Distance (km) Brightness Sun altitude
Rises 21:34:30 0° 52° (NE) 3,926 6.2 -29.8°
Reaches altitude 10° 21:36:59 10° 51° (NE) 2,966 5.6 -30.0°
Maximum altitude 21:43:31 77° 327° (NNW) 1,135 3.3 -30.6°
Drops below altitude 10° 21:50:03 10° 243° (WSW) 2,958 5.5 -31.2°
Sets 21:52:31 0° 242° (WSW) 3,914 6.2 -31.4°
